GW0557 Weather Reports


time (UTC)temp
C
wind
direction
speed
KPH
gust
KPH
rain 1hr
cm
rain 24hr
cm
rain mn
cm
humidity
%
barometer
mb
20260905204611 30 0 0.0 0.0 0.00 0.00 0.00 74 1012.3
20260905203107 30 0 0.0 1.6 0.00 0.00 0.00 73 1012.5
20260905201606 30 0 0.0 1.6 0.00 0.00 0.00 70 1012.5
20260905200107 31 0 0.0 1.6 0.00 0.00 0.00 69 1012.9
20260905194607 31 0 0.0 3.2 0.00 0.00 0.00 68 1012.6
20260905193111 32 0 0.0 4.8 0.00 0.00 0.00 65 1013.0
20260905191611 32 247 1.6 9.7 0.00 0.00 0.00 64 1013.1
20260905190104 32 279 0.0 8.0 0.00 0.00 0.00 63 1013.3
20260905184613 32 202 0.0 8.0 0.00 0.00 0.00 64 1013.4
20260905183107 32 0 0.0 8.0 0.00 0.00 0.00 65 1013.7
20260905181608 31 222 1.6 9.7 0.00 0.00 0.00 66 1013.9
20260905180108 31 210 3.2 9.7 0.00 0.00 0.00 64 1013.9
20260905174604 31 232 1.6 4.8 0.00 0.00 0.00 66 1014.2
20260905173101 30 190 1.6 9.7 0.00 0.00 0.00 66 1014.2
20260905171601 30 175 3.2 9.7 0.00 0.00 0.00 67 1014.3
20260905170114 29 205 1.6 8.0 0.00 0.00 0.00 68 1014.5
20260905164606 28 175 3.2 9.7 0.00 0.00 0.00 67 1014.6
20260905163100 28 231 3.2 9.7 0.00 0.00 0.00 70 1014.8
20260905161600 28 200 3.2 8.0 0.00 0.00 0.00 68 1014.7
20260905160104 28 235 3.2 12.9 0.00 0.00 0.00 69 1014.9
20260905154605 27 198 3.2 12.9 0.00 0.00 0.00 71 1014.7
20260905153100 27 185 4.8 17.7 0.00 0.00 0.00 71 1014.7
20260905151606 26 267 6.4 19.3 0.00 0.00 0.00 72 1014.6
20260905150105 26 191 6.4 12.9 0.00 0.00 0.00 72 1014.9
20260905144602 25 169 6.4 16.1 0.00 0.00 0.00 74 1015.0
20260905143112 25 188 4.8 22.5 0.00 0.00 0.00 75 1014.7
20260905141605 24 202 6.4 14.5 0.00 0.00 0.00 76 1015.0
20260905140101 23 209 3.2 16.1 0.00 0.00 0.00 78 1015.0
20260905134603 23 218 4.8 11.3 0.00 0.00 0.00 78 1014.9
20260905133058 23 0 3.2 12.9 0.00 0.00 0.00 80 1015.0
20260905131559 22 217 3.2 9.7 0.00 0.00 0.00 80 1015.1
20260905124602 22 184 4.8 12.9 0.00 0.00 0.00 81 1015.0
20260905123105 22 212 6.4 17.7 0.00 0.00 0.00 81 1015.1
20260905121601 22 190 3.2 8.0 0.00 0.00 0.00 83 1015.0
20260905120107 21 205 0.0 8.0 0.00 0.00 0.00 83 1015.0
20260905114605 22 74 3.2 12.9 0.00 0.00 0.00 82 1014.6
20260905113106 22 94 6.4 17.7 0.00 0.00 0.00 82 1014.7
20260905111646 22 9 4.8 11.3 0.00 0.00 0.00 89 1014.3
20260905110059 22 0 0.0 0.0 0.00 0.00 0.00 89 1014.0
20260905104601 22 0 0.0 0.0 0.00 0.00 0.00 89 1013.6
20260905103105 22 0 0.0 0.0 0.00 0.00 0.00 87 1013.6
20260905101603 23 0 0.0 0.0 0.00 0.00 0.00 87 1013.8
20260905100110 23 0 0.0 0.0 0.00 0.00 0.00 86 1013.4
20260905094604 23 0 0.0 0.0 0.00 0.00 0.00 87 1013.5
20260905093104 23 0 0.0 0.0 0.00 0.00 0.00 86 1013.6
20260905091610 23 0 0.0 0.0 0.00 0.00 0.00 86 1013.5
20260905090104 23 0 0.0 0.0 0.00 0.00 0.00 86 1013.5
20260905084603 23 0 0.0 0.0 0.00 0.00 0.00 86 1013.7
20260905083102 23 0 0.0 0.0 0.00 0.00 0.00 86 1013.5
20260905081605 23 0 0.0 0.0 0.00 0.00 0.00 86 1013.4
20260905080107 23 0 0.0 0.0 0.00 0.00 0.00 87 1013.2
20260905074558 23 0 0.0 0.0 0.00 0.00 0.00 87 1012.9
20260905073103 23 0 0.0 0.0 0.00 0.00 0.00 87 1013.0
20260905071605 23 0 0.0 0.0 0.00 0.00 0.00 87 1013.1
20260905070105 23 0 0.0 0.0 0.00 0.00 0.00 87 1013.2
20260905064601 23 0 0.0 0.0 0.00 0.00 0.00 87 1013.3
20260905063104 24 0 0.0 0.0 0.00 0.00 0.00 87 1013.4
20260905061611 24 0 0.0 0.0 0.00 0.00 0.00 86 1013.8
20260905060104 24 0 0.0 0.0 0.00 0.00 0.00 86 1014.0
20260905054601 24 0 0.0 0.0 0.00 0.00 0.00 86 1014.0
20260905053104 24 0 0.0 0.0 0.00 0.00 0.00 85 1014.1
20260905051601 25 0 0.0 0.0 0.00 0.00 0.00 85 1014.2
20260905050109 25 0 0.0 0.0 0.00 0.00 0.00 85 1014.3
20260905044607 25 0 0.0 0.0 0.00 0.00 0.00 85 1014.3
20260905043103 25 0 0.0 0.0 0.00 0.00 0.00 85 1014.4
20260905041604 25 0 0.0 0.0 0.00 0.00 0.00 85 1014.4
20260905034607 25 0 0.0 0.0 0.00 0.00 0.00 84 1014.4
20260905033105 25 0 0.0 0.0 0.00 0.00 0.00 84 1014.5
20260905031602 25 0 0.0 0.0 0.00 0.00 0.00 84 1014.6
20260905030123 26 0 0.0 0.0 0.00 0.00 0.00 84 1014.5
20260905024604 26 0 0.0 0.0 0.00 0.00 0.00 83 1014.5
20260905023105 26 0 0.0 0.0 0.00 0.00 0.00 83 1014.4
20260905021600 26 0 0.0 0.0 0.00 0.00 0.00 82 1014.2
20260905020108 26 0 0.0 1.6 0.00 0.00 0.00 82 1014.2
20260905014604 27 0 0.0 1.6 0.00 0.00 0.00 81 1014.2
20260905013103 27 0 0.0 0.0 0.00 0.00 0.00 81 1014.2
20260905011601 27 0 0.0 0.0 0.00 0.00 0.00 81 1014.2
20260905010113 27 0 0.0 0.0 0.00 0.00 0.00 80 1014.1
20260905004614 28 0 0.0 0.0 0.00 0.00 0.00 79 1013.8
20260905003105 28 0 0.0 0.0 0.00 0.00 0.00 78 1013.9
20260905001604 29 0 0.0 0.0 0.00 0.00 0.00 76 1013.9
20260905000104 30 0 0.0 0.0 0.00 0.00 0.00 75 1014.0
20260904234607 30 0 0.0 0.0 0.00 0.00 0.00 74 1014.0
20260904233106 30 0 0.0 0.0 0.00 0.00 0.00 72 1014.1
20260904231602 31 0 0.0 0.0 0.00 0.00 0.00 71 1014.0
20260904230109 31 0 0.0 3.2 0.00 0.00 0.00 69 1013.9
20260904224601 31 0 0.0 3.2 0.00 0.00 0.00 69 1013.9
20260904223105 31 197 0.0 6.4 0.00 0.00 0.00 68 1013.8
20260904221612 32 0 0.0 4.8 0.00 0.00 0.00 68 1013.7
20260904220104 32 196 0.0 3.2 0.00 0.00 0.00 65 1013.5
20260904214621 32 0 0.0 6.4 0.00 0.00 0.00 61 1013.6
20260904213104 32 0 0.0 3.2 0.00 0.00 0.00 65 1013.6
20260904211618 33 0 0.0 6.4 0.00 0.00 0.00 64 1013.7
20260904210059 33 236 0.0 6.4 0.00 0.00 0.00 63 1013.8